| time (UTC) | temp F | wind direction | speed MPH | gust MPH | rain 1hr in | rain 24hr in | rain mn in | humidity % | barometer mb |
| 20260507203805 | 77 | 284 | 2.0 | 3.0 | 0.00 | 2.47 | 2.53 | 78 | 1013.5 |
| 20260507183306 | 71 | 19 | 2.0 | 5.0 | 0.06 | 3.42 | 2.53 | 93 | 1014.9 |
| 20260507182805 | 71 | 39 | 3.0 | 6.0 | 0.06 | 3.42 | 2.53 | 93 | 1014.8 |
| 20260507181806 | 71 | 74 | 1.0 | 8.0 | 0.06 | 3.42 | 2.53 | 95 | 1014.4 |
| 20260507181306 | 71 | 5 | 1.0 | 8.0 | 0.06 | 3.43 | 2.53 | 93 | 1014.9 |
| 20260507180806 | 71 | 5 | 2.0 | 8.0 | 0.06 | 3.43 | 2.53 | 93 | 1014.9 |
| 20260507180306 | 71 | 355 | 5.0 | 8.0 | 0.07 | 3.43 | 2.53 | 93 | 1014.9 |
| 20260507175806 | 71 | 355 | 3.0 | 5.0 | 0.14 | 3.43 | 2.53 | 93 | 1014.9 |
| 20260507175307 | 71 | 344 | 2.0 | 5.0 | 0.14 | 3.43 | 2.53 | 93 | 1014.9 |
| 20260507174805 | 71 | 300 | 1.0 | 3.0 | 0.15 | 3.43 | 2.53 | 93 | 1014.9 |
| 20260507174306 | 71 | 5 | 1.0 | 3.0 | 0.29 | 3.43 | 2.53 | 93 | 1014.9 |
| 20260507173805 | 71 | 5 | 1.0 | 3.0 | 0.24 | 3.37 | 2.47 | 93 | 1014.9 |
| 20260507173306 | 71 | 30 | 1.0 | 2.0 | 0.26 | 3.37 | 2.47 | 93 | 1014.9 |
| 20260507172806 | 70 | 0 | 0.0 | 2.0 | 0.27 | 3.37 | 2.47 | 96 | 1015.2 |
| 20260507172307 | 70 | 0 | 0.0 | 2.0 | 0.27 | 3.37 | 2.47 | 96 | 1015.2 |
| 20260507171805 | 70 | 0 | 0.0 | 2.0 | 0.28 | 3.37 | 2.47 | 96 | 1015.2 |
| 20260507171305 | 70 | 152 | 1.0 | 3.0 | 0.29 | 3.37 | 2.47 | 96 | 1015.2 |
| 20260507170805 | 70 | 180 | 1.0 | 3.0 | 0.29 | 3.37 | 2.47 | 96 | 1015.0 |
| 20260507165806 | 71 | 0 | 0.0 | 3.0 | 0.61 | 3.29 | 2.39 | 96 | 1014.9 |
| 20260507165306 | 71 | 0 | 0.0 | 3.0 | 0.69 | 3.29 | 2.39 | 96 | 1014.9 |
| 20260507164805 | 71 | 0 | 1.0 | 3.0 | 1.63 | 3.28 | 2.38 | 96 | 1014.9 |
| 20260507164306 | 71 | 279 | 3.0 | 3.0 | 1.49 | 3.14 | 2.24 | 96 | 1014.9 |
| 20260507163806 | 71 | 309 | 1.0 | 3.0 | 0.71 | 3.13 | 2.23 | 96 | 1014.9 |
| 20260507163305 | 71 | 0 | 0.0 | 3.0 | 0.69 | 3.11 | 2.21 | 96 | 1014.9 |
| 20260507162805 | 72 | 0 | 0.0 | 2.0 | 0.68 | 3.10 | 2.20 | 96 | 1015.2 |
| 20260507162307 | 72 | 0 | 0.0 | 2.0 | 0.68 | 3.10 | 2.20 | 96 | 1015.2 |
| 20260507161805 | 72 | 189 | 2.0 | 3.0 | 0.67 | 3.10 | 2.19 | 96 | 1015.2 |
| 20260507161305 | 72 | 0 | 0.0 | 5.0 | 1.44 | 3.09 | 2.18 | 96 | 1015.2 |
| 20260507160805 | 72 | 204 | 1.0 | 6.0 | 1.45 | 3.09 | 2.18 | 96 | 1014.9 |
| 20260507155805 | 72 | 223 | 3.0 | 6.0 | 1.44 | 2.69 | 1.78 | 96 | 1014.9 |
| 20260507155307 | 72 | 190 | 5.0 | 3.0 | 1.60 | 2.61 | 1.70 | 96 | 1014.9 |
| 20260507152306 | 71 | 178 | 2.0 | 2.0 | 1.50 | 1.63 | 1.52 | 96 | 1014.6 |
| 20260507151804 | 71 | 178 | 1.0 | 2.0 | 1.50 | 1.63 | 1.52 | 96 | 1014.6 |
| 20260507150804 | 71 | 110 | 2.0 | 5.0 | 1.50 | 1.63 | 1.52 | 96 | 1014.2 |
| 20260507150304 | 71 | 110 | 1.0 | 7.0 | 1.50 | 1.63 | 1.52 | 96 | 1014.2 |
| 20260507145306 | 71 | 0 | 0.0 | 12.0 | 0.72 | 0.84 | 0.73 | 96 | 1013.9 |
| 20260507144804 | 71 | 0 | 0.0 | 12.0 | 0.62 | 0.73 | 0.62 | 93 | 1014.2 |
| 20260507144304 | 71 | 294 | 3.0 | 12.0 | 0.34 | 0.45 | 0.34 | 93 | 1014.2 |
| 20260507143304 | 71 | 287 | 2.0 | 6.0 | 0.10 | 0.21 | 0.10 | 93 | 1014.3 |
| 20260507142804 | 72 | 219 | 2.0 | 10.0 | 0.02 | 0.13 | 0.02 | 89 | 1013.7 |
| 20260507142306 | 72 | 216 | 2.0 | 12.0 | 0.02 | 0.13 | 0.02 | 89 | 1013.7 |
| 20260507141804 | 72 | 205 | 2.0 | 12.0 | 0.02 | 0.13 | 0.02 | 91 | 1013.3 |
| 20260507141304 | 72 | 190 | 2.0 | 12.0 | 0.02 | 0.13 | 0.02 | 87 | 1013.5 |
| 20260507140805 | 73 | 229 | 3.0 | 12.0 | 0.02 | 0.13 | 0.02 | 96 | 1014.5 |
| 20260507140304 | 73 | 223 | 3.0 | 12.0 | 0.02 | 0.13 | 0.02 | 96 | 1014.4 |
| 20260507135804 | 73 | 236 | 1.0 | 10.0 | 0.01 | 0.12 | 0.01 | 96 | 1013.2 |
| 20260507135306 | 73 | 202 | 9.0 | 10.0 | 0.01 | 0.12 | 0.01 | 96 | 1013.2 |
| 20260507134805 | 76 | 227 | 5.0 | 10.0 | 0.00 | 0.11 | 0.00 | 93 | 1013.2 |
| 20260507134305 | 76 | 218 | 2.0 | 13.0 | 0.00 | 0.11 | 0.00 | 93 | 1013.2 |
| 20260507133804 | 77 | 214 | 7.0 | 13.0 | 0.00 | 0.11 | 0.00 | 87 | 1012.9 |
| 20260507133304 | 77 | 193 | 5.0 | 13.0 | 0.00 | 0.11 | 0.00 | 87 | 1012.9 |
| 20260507132804 | 77 | 220 | 2.0 | 12.0 | 0.00 | 0.11 | 0.00 | 87 | 1012.9 |
| 20260507132307 | 77 | 221 | 3.0 | 12.0 | 0.00 | 0.11 | 0.00 | 87 | 1012.9 |
| 20260507131805 | 77 | 215 | 1.0 | 12.0 | 0.00 | 0.11 | 0.00 | 87 | 1012.9 |
| 20260507130804 | 77 | 203 | 5.0 | 12.0 | 0.00 | 0.11 | 0.00 | 90 | 1013.0 |
| 20260507130304 | 77 | 217 | 6.0 | 12.0 | 0.00 | 0.11 | 0.00 | 92 | 1012.9 |
| 20260507125803 | 76 | 238 | 7.0 | 12.0 | 0.00 | 0.11 | 0.00 | 90 | 1012.6 |
| 20260507125307 | 76 | 208 | 7.0 | 10.0 | 0.00 | 0.11 | 0.00 | 90 | 1012.6 |
| 20260507124804 | 76 | 217 | 5.0 | 9.0 | 0.00 | 0.11 | 0.00 | 90 | 1012.6 |
| 20260507123805 | 76 | 229 | 6.0 | 12.0 | 0.00 | 0.11 | 0.00 | 90 | 1012.5 |
| 20260507123304 | 76 | 239 | 5.0 | 12.0 | 0.00 | 0.11 | 0.00 | 90 | 1012.5 |
| 20260507122804 | 76 | 256 | 5.0 | 14.0 | 0.00 | 0.11 | 0.00 | 90 | 1012.5 |
| 20260507122307 | 76 | 199 | 9.0 | 14.0 | 0.00 | 0.11 | 0.00 | 90 | 1012.5 |
| 20260507121804 | 76 | 197 | 3.0 | 14.0 | 0.00 | 0.11 | 0.00 | 90 | 1012.5 |
| 20260507121304 | 76 | 196 | 6.0 | 10.0 | 0.00 | 0.11 | 0.00 | 90 | 1012.5 |
| 20260507120805 | 76 | 202 | 7.0 | 10.0 | 0.00 | 0.11 | 0.00 | 90 | 1012.5 |
| 20260507120304 | 76 | 231 | 3.0 | 10.0 | 0.00 | 0.11 | 0.00 | 90 | 1012.5 |